Hourly Weather Lugovoe

Today, 6 May, Thursday

Time Temperature Precipitation Wind Pressure Humidity
00:00 +21°C° 0 mm 1 mps 696 mmHg 73%
01:00 +21°C° 0 mm 1 mps 696 mmHg 72%
02:00 +21°C° 0 mm 1 mps 696 mmHg 71%
03:00 +20°C° 0 mm 1 mps 696 mmHg 74%
04:00 +19°C° 0 mm 1 mps 696 mmHg 76%
05:00 +19°C° 0 mm 1 mps 696 mmHg 78%
06:00 +20°C° 0 mm 1 mps 697 mmHg 73%
07:00 +21°C° 0 mm 1 mps 698 mmHg 68%
08:00 +22°C° 0 mm 1 mps 698 mmHg 63%
09:00 +23°C° 0.1 mm 1 mps 698 mmHg 62%
10:00 +24°C° 0.1 mm 2 mps 698 mmHg 60%
11:00 +25°C° 0.1 mm 2 mps 699 mmHg 58%
12:00 +25°C° 0.3 mm 2 mps 699 mmHg 58%
13:00 +25°C° 0.3 mm 1 mps 699 mmHg 58%
14:00 +26°C° 0.3 mm 1 mps 699 mmHg 57%
15:00 +23°C° 4 mm 2 mps 699 mmHg 68%
16:00 +20°C° 4 mm 3 mps 699 mmHg 78%
17:00 +16°C° 4 mm 5 mps 700 mmHg 88%
18:00 +17°C° 1.6 mm 4 mps 700 mmHg 88%
19:00 +17°C° 1.6 mm 3 mps 701 mmHg 88%
20:00 +17°C° 1.6 mm 2 mps 701 mmHg 87%
21:00 +17°C° 0.4 mm 2 mps 701 mmHg 87%
22:00 +18°C° 0.4 mm 1 mps 701 mmHg 86%
23:00 +18°C° 0.4 mm 1 mps 701 mmHg 86%

Tomorrow, 7 May, Friday

Time Temperature Precipitation Wind Pressure Humidity
00:00 +18°C° 0.1 mm 1 mps 700 mmHg 86%
01:00 +17°C° 0.1 mm 2 mps 700 mmHg 86%
02:00 +17°C° 0.1 mm 2 mps 700 mmHg 86%
03:00 +17°C° 0 mm 2 mps 700 mmHg 85%
04:00 +16°C° 0 mm 2 mps 700 mmHg 84%
05:00 +16°C° 0 mm 2 mps 700 mmHg 84%
06:00 +17°C° 0 mm 2 mps 700 mmHg 79%
07:00 +19°C° 0 mm 2 mps 701 mmHg 75%
08:00 +20°C° 0 mm 2 mps 701 mmHg 71%
09:00 +21°C° 0.1 mm 2 mps 701 mmHg 68%
10:00 +23°C° 0.1 mm 2 mps 701 mmHg 65%
11:00 +24°C° 0.1 mm 2 mps 701 mmHg 62%
12:00 +24°C° 0.3 mm 2 mps 701 mmHg 61%
13:00 +25°C° 0.3 mm 2 mps 701 mmHg 60%
14:00 +25°C° 0.3 mm 2 mps 701 mmHg 59%
15:00 +24°C° 0.4 mm 2 mps 701 mmHg 63%
16:00 +24°C° 0.4 mm 2 mps 701 mmHg 66%
17:00 +23°C° 0.4 mm 2 mps 701 mmHg 69%
18:00 +21°C° 0.5 mm 2 mps 701 mmHg 73%
19:00 +20°C° 0.5 mm 2 mps 701 mmHg 76%
20:00 +19°C° 0.5 mm 2 mps 701 mmHg 80%
21:00 +19°C° 0 mm 2 mps 701 mmHg 78%
22:00 +20°C° 0 mm 1 mps 701 mmHg 76%
23:00 +20°C° 0 mm 1 mps 701 mmHg 74%

Day after tomorrow, 8 May, Saturday

Time Temperature Precipitation Wind Pressure Humidity
00:00 +20°C° 0 mm 1 mps 700 mmHg 74%
01:00 +20°C° 0 mm 1 mps 700 mmHg 75%
02:00 +19°C° 0 mm 1 mps 700 mmHg 75%
03:00 +19°C° 0 mm 1 mps 700 mmHg 75%
04:00 +19°C° 0 mm 1 mps 700 mmHg 74%
05:00 +19°C° 0 mm 1 mps 700 mmHg 74%
06:00 +20°C° 0 mm 1 mps 700 mmHg 68%
07:00 +22°C° 0 mm 1 mps 701 mmHg 63%
08:00 +22°C° 0 mm 0 mps 701 mmHg 58%
09:00 +24°C° 0.1 mm 1 mps 701 mmHg 56%
10:00 +25°C° 0.1 mm 1 mps 701 mmHg 54%
11:00 +26°C° 0.1 mm 1 mps 701 mmHg 53%
12:00 +26°C° 0.3 mm 1 mps 701 mmHg 52%
13:00 +27°C° 0.3 mm 1 mps 701 mmHg 51%
14:00 +27°C° 0.3 mm 1 mps 700 mmHg 50%
15:00 +27°C° 0.2 mm 1 mps 700 mmHg 51%
16:00 +26°C° 0.2 mm 1 mps 700 mmHg 53%
17:00 +26°C° 0.2 mm 1 mps 700 mmHg 55%
18:00 +25°C° 0.1 mm 2 mps 700 mmHg 58%
19:00 +23°C° 0.1 mm 2 mps 700 mmHg 62%
20:00 +21°C° 0.1 mm 2 mps 700 mmHg 66%
21:00 +20°C° 0 mm 2 mps 699 mmHg 65%
22:00 +20°C° 0 mm 2 mps 699 mmHg 65%
23:00 +20°C° 0 mm 2 mps 699 mmHg 64%

9 May, Sunday

Time Temperature Precipitation Wind Pressure Humidity
00:00 +19°C° 0 mm 2 mps 698 mmHg 64%
01:00 +19°C° 0 mm 2 mps 698 mmHg 64%
02:00 +19°C° 0 mm 2 mps 697 mmHg 64%
03:00 +19°C° 0 mm 2 mps 697 mmHg 64%
04:00 +18°C° 0 mm 2 mps 697 mmHg 64%
05:00 +18°C° 0 mm 2 mps 697 mmHg 64%
06:00 +21°C° 0 mm 1 mps 698 mmHg 60%
07:00 +23°C° 0 mm 1 mps 698 mmHg 56%
08:00 +24°C° 0 mm 1 mps 699 mmHg 53%
09:00 +25°C° 0 mm 2 mps 699 mmHg 51%
10:00 +27°C° 0 mm 2 mps 698 mmHg 50%
11:00 +28°C° 0 mm 3 mps 698 mmHg 48%
12:00 +28°C° 0.1 mm 3 mps 698 mmHg 47%
13:00 +29°C° 0.1 mm 3 mps 698 mmHg 47%
14:00 +29°C° 0.1 mm 3 mps 698 mmHg 46%
15:00 +29°C° 0.4 mm 2 mps 698 mmHg 48%
16:00 +28°C° 0.4 mm 2 mps 698 mmHg 50%
17:00 +28°C° 0.4 mm 2 mps 698 mmHg 52%
18:00 +26°C° 0.5 mm 2 mps 698 mmHg 55%
19:00 +25°C° 0.5 mm 2 mps 697 mmHg 58%
20:00 +24°C° 0.5 mm 3 mps 697 mmHg 62%
21:00 +22°C° 0.1 mm 3 mps 697 mmHg 61%
22:00 +21°C° 0.1 mm 3 mps 697 mmHg 60%
23:00 +21°C° 0.1 mm 3 mps 697 mmHg 59%

10 May, Monday

Time Temperature Precipitation Wind Pressure Humidity
00:00 +20°C° 0 mm 2 mps 696 mmHg 59%
01:00 +20°C° 0 mm 2 mps 696 mmHg 59%
02:00 +20°C° 0 mm 2 mps 696 mmHg 59%
03:00 +19°C° 0 mm 2 mps 696 mmHg 59%
04:00 +19°C° 0 mm 2 mps 696 mmHg 59%
05:00 +20°C° 0 mm 1 mps 696 mmHg 59%

11 May, Tuesday

Time Temperature Precipitation Wind Pressure Humidity
Show more

We Need Your Consent

Meteoprog and our Service Providers may store and access personal data such as cookies, device identifiers or other similar technologies on your device and process such data to personalise content and ads, as well as provide social media features and to analyse the traffic.

  • Store and/or access information on your device

    Cookies, device identifiers or other information can be stored or accessed on your device for the purposes indicated above.

  • Personalised ads and content, ad and content measurement, audience insights, and products development

    Ads and content can be personalised based on a profile. More data can be added to better personalise ads and content. Ad and content performance can be measured. Insights about the audience who saw the ads and content can be derived. Such data can be used to develop or improve user’s experience, systems and software.

By clicking ‘I Agree’ you will allow the use of indicated cookies, device identifiers, web beacons or other similar technologies. Your settings can be changed in the browser on your device.

For certain purposes, legitimate interests may be relied on, rather than consent. You can read more about this in our Privacy and Cookie Policy.